Location: Bowman Observatory
(41.0326°N, 73.6210°W)
Time: 17:25:14
(UTC-04:00)

Cosmos 2298 Rocket - Visible Passes

Search period start: 24 April 2014 00:00
Search period end: 04 May 2014 00:00
Orbit: 777 x 785 km, 74.0° (Epoch: 23 April)

Date Brightness Start Highest point End Pass type
(mag) Time Alt. Az. Time Alt. Az. Time Alt. Az.
24 Apr 5.7 02:41:22 24° ESE 02:41:46 24° E 02:45:57 10° NE visible
24 Apr 4.6 04:21:54 30° WSW 04:23:49 41° WNW 04:28:50 10° N visible
25 Apr 6.3 02:08:54 15° E 02:08:54 15° E 02:11:45 10° ENE visible
25 Apr 4.1 03:49:26 52° WSW 03:50:30 64° WNW 03:55:47 10° NNE visible
26 Apr 3.9 03:16:56 77° SSE 03:17:16 82° ESE 03:22:35 10° NNE visible
26 Apr 6.0 04:57:33 10° W 05:00:18 14° NW 05:03:05 10° NNW visible
27 Apr 4.6 02:44:24 51° E 02:44:24 51° E 02:49:14 10° NNE visible
27 Apr 5.5 04:24:56 18° W 04:26:45 21° WNW 04:30:44 10° N visible
28 Apr 5.4 02:11:49 31° E 02:11:49 31° E 02:15:41 10° NE visible
28 Apr 5.0 03:52:21 29° W 03:53:18 31° WNW 03:58:00 10° N visible
29 Apr 6.1 01:39:13 19° ENE 01:39:13 19° ENE 01:41:50 10° NE visible
29 Apr 4.4 03:19:45 48° WNW 03:19:55 48° WNW 03:25:04 10° N visible
30 Apr 6.6 01:06:36 11° ENE 01:06:36 11° ENE 01:07:14 10° ENE visible
30 Apr 4.1 02:47:07 69° NNW 02:47:07 69° NNW 02:51:57 10° NNE visible
30 Apr 6.2 04:28:39 10° WNW 04:29:56 11° NW 04:31:13 10° NW visible
01 May 4.6 02:14:28 55° NE 02:14:28 55° NE 02:18:42 10° NNE visible
01 May 5.9 03:54:59 15° WNW 03:56:19 16° NW 03:59:37 10° NNW visible
02 May 5.3 01:41:47 35° ENE 01:41:47 35° ENE 01:45:17 10° NNE visible
02 May 5.4 03:22:18 24° WNW 03:22:48 24° WNW 03:27:06 10° N visible
03 May 5.9 01:09:04 22° ENE 01:09:04 22° ENE 01:11:39 10° NE visible
03 May 5.0 02:49:35 36° WNW 02:49:35 36° WNW 02:54:16 10° N visible
